sat.trackr.live / text

‹ back to catalog

STARLINK-3586

NORAD 51795 · 2022-017AD

PAYLOAD ACTIVE UNKNOWN

§ Identity

Operator
Country
US
Launch date
2022-02-25
Launch site
AFWTR
Launch vehicle
Mass (kg)
RCS (m²)

Purposes: comms

External: N2YO · Heavens-Above · Gunter

§ Orbital elements

Epoch: 2026-05-25T00:34:49.984032Z

Period
95.44 min
Inclination
53.2147°
Eccentricity
0.0001417
Mean motion
15.08839236 rev/d
Perigee alt
538.8 km
Apogee alt
540.7 km
Semi-major
6,917.9 km
B*
2.8743e-5
RAAN
6.6404°
Arg perigee
93.2477°
Mean anomaly
266.8677°
Rev number
23,544

§ Raw data

STARLINK-35861 51795U 22017AD  26145.02418963  .00000170  00000+0  28743-4 0  99952 51795  53.2147   6.6404 0001417  93.2477 266.8677 15.08839236235441

JSON: /api/v1/satellites/51795 · /tle

For live sub-satellite position, see the globe view (requires WebGL).

§ Visibility from observer

Set your observer location to see the next 7 days of passes ≥ 10°. The values pass through the URL so the page stays shareable.

No JS? Fill the form by hand. The geolocation button needs JavaScript.